sat.trackr.live / text

‹ back to catalog

STARLINK-30939

NORAD 58393 · 2023-178V

PAYLOAD ACTIVE UNKNOWN

§ Identity

Operator
Country
US
Launch date
2023-11-20
Launch site
AFWTR
Launch vehicle
Mass (kg)
RCS (m²)

Purposes: comms

External: N2YO · Heavens-Above · Gunter

§ Orbital elements

Epoch: 2026-09-20T11:07:09.826752Z

Period
93.85 min
Inclination
53.1600°
Eccentricity
0.0001316
Mean motion
15.34382783 rev/d
Perigee alt
461.9 km
Apogee alt
463.7 km
Semi-major
6,840.9 km
B*
-2.1973e-6
RAAN
172.0066°
Arg perigee
77.6712°
Mean anomaly
282.4438°
Rev number
15,964

§ Raw data

STARLINK-309391 58393U 23178V   26263.46330818 -.00000450  00000+0 -21973-5 0  99982 58393  53.1600 172.0066 0001316  77.6712 282.4438 15.34382783159648

JSON: /api/v1/satellites/58393 · /tle

For live sub-satellite position, see the globe view (requires WebGL).

§ Visibility from observer

Set your observer location to see the next 7 days of passes ≥ 10°. The values pass through the URL so the page stays shareable.

No JS? Fill the form by hand. The geolocation button needs JavaScript.